C/2022 A3 ( Lemmon-ATLAS )

Japanese version
Home page
Updated on April 13, 2024

---------------------------------------------------------------------

* Profile

Discovery Date January 10 and March 1, 2022
Magnitude 20.3 mag, 19.2 mag
Discoverer Mt. Lemmon Survey, Asteroid Terrestrial-Impact Last Alert System (ATLAS) search program

* Pictures

* Orbital Elements

Epoch 2024 Mar. 31.0 TT = JDT 2460400.5
T 2023 Sept. 28.87219 TT                                Rudenko
q   3.7036276            (2000.0)            P               Q
z  +0.0011549      Peri.  234.85147     -0.48771925     +0.66420341
 +/-0.0000005      Node   325.47441     +0.60658311     -0.20888385
e   0.9957228      Incl.   88.34096     -0.62784302     -0.71777529
>From 958 observations 2021 Apr. 30-2024 Mar. 16, mean residual 0".6.

* Finding Charts

* Magnitudes Graph

        m1 = 6.0 + 5 log d + 13.0 log r(t + 140)

---------------------------------------------------------------------

The orbital elements are published on M.P.E.C. 2024-F34.
The charts are made with StellaNavigator Ver.10 (AstroArts).
The magnitudes graphs are made with Comet for Windows.

---------------------------------------------------------------------

Copyright(C) Seiichi Yoshida (comet@aerith.net). All rights reserved.